TimeCST,TemperatureF,Dew PointF,Humidity,Sea Level PressureIn,VisibilityMPH,Wind Direction,Wind SpeedMPH,Gust SpeedMPH,PrecipitationIn,Events,Conditions,WindDirDegrees,DateUTC
12:14 AM,51.4,35.8,55,29.92,10.0,SSW,20.7,28.8,N/A,,Clear,200,2012-11-19 06:14:00
12:35 AM,51.1,35.8,56,29.92,10.0,South,16.1,32.2,N/A,,Clear,190,2012-11-19 06:35:00
12:55 AM,50.9,36.0,57,29.91,10.0,SSW,18.4,31.1,N/A,,Clear,200,2012-11-19 06:55:00
1:14 AM,50.4,36.1,58,29.91,10.0,South,13.8,26.5,N/A,,Clear,190,2012-11-19 07:14:00
1:35 AM,50.0,36.1,59,29.93,10.0,SSE,9.2,17.3,N/A,,Clear,160,2012-11-19 07:35:00
1:55 AM,49.3,36.1,61,29.93,10.0,SSE,5.8,-,N/A,,Clear,150,2012-11-19 07:55:00
2:15 AM,48.9,36.1,61,29.94,10.0,SSE,9.2,-,N/A,,Clear,160,2012-11-19 08:15:00
2:35 AM,48.6,36.1,62,29.94,10.0,South,9.2,-,N/A,,Clear,170,2012-11-19 08:35:00
2:55 AM,48.2,36.1,63,29.94,10.0,SSE,8.1,-,N/A,,Clear,160,2012-11-19 08:55:00
3:15 AM,48.2,36.3,63,29.94,10.0,SSE,9.2,17.3,N/A,,Clear,150,2012-11-19 09:15:00
3:35 AM,46.6,36.1,67,29.94,10.0,South,9.2,-,N/A,,Clear,180,2012-11-19 09:35:00
3:55 AM,47.5,36.5,66,29.93,10.0,South,8.1,-,N/A,,Clear,180,2012-11-19 09:55:00
4:15 AM,46.9,36.5,67,29.93,10.0,SSE,8.1,-,N/A,,Clear,150,2012-11-19 10:15:00
4:35 AM,45.7,36.5,70,29.94,10.0,SSE,4.6,-,N/A,,Clear,150,2012-11-19 10:35:00
4:54 AM,43.0,35.6,75,29.94,10.0,SSE,8.1,-,N/A,,Clear,160,2012-11-19 10:54:00
5:15 AM,42.1,35.6,78,29.95,10.0,SSE,5.8,-,N/A,,Clear,150,2012-11-19 11:15:00
5:35 AM,44.4,36.0,72,29.95,10.0,South,6.9,-,N/A,,Clear,180,2012-11-19 11:35:00
5:55 AM,44.8,36.0,71,29.95,10.0,South,5.8,-,N/A,,Clear,180,2012-11-19 11:55:00
6:15 AM,43.7,35.8,74,29.95,10.0,South,8.1,-,N/A,,Clear,180,2012-11-19 12:15:00
6:35 AM,42.8,35.6,76,29.95,10.0,South,8.1,-,N/A,,Clear,170,2012-11-19 12:35:00
6:54 AM,40.5,35.1,81,29.95,10.0,South,4.6,-,N/A,,Clear,180,2012-11-19 12:54:00
7:35 AM,36.7,33.4,88,29.97,10.0,Calm,Calm,-,N/A,,Clear,0,2012-11-19 13:35:00
7:54 AM,34.2,32.0,92,29.99,10.0,Calm,Calm,-,N/A,,Clear,0,2012-11-19 13:54:00
8:15 AM,36.3,33.3,89,29.98,10.0,Calm,Calm,-,N/A,,Clear,0,2012-11-19 14:15:00
8:35 AM,38.1,34.2,86,29.99,10.0,ENE,3.5,-,N/A,,Clear,60,2012-11-19 14:35:00
8:54 AM,41.4,35.8,81,29.99,10.0,Calm,Calm,-,N/A,,Clear,0,2012-11-19 14:54:00
9:15 AM,43.7,36.5,76,30.00,10.0,Calm,Calm,-,N/A,,Clear,0,2012-11-19 15:15:00
9:35 AM,45.1,36.7,72,30.00,10.0,Calm,Calm,-,N/A,,Clear,0,2012-11-19 15:35:00
9:55 AM,47.8,37.6,68,30.01,10.0,West,8.1,-,N/A,,Clear,260,2012-11-19 15:55:00
9:59 AM,48.2,37.6,67,30.01,10.0,West,8.1,-,N/A,,Clear,270,2012-11-19 15:59:00
1:23 PM,-9999,-9999,N/A,30.00,-9999.0,NW,5.8,-,N/A,,Unknown,320,2012-11-19 19:23:00
1:35 PM,55.6,38.5,53,30.01,10.0,North,6.9,-,N/A,,Unknown,10,2012-11-19 19:35:00
1:55 PM,56.1,38.7,52,30.02,10.0,NW,12.7,-,N/A,,Clear,320,2012-11-19 19:55:00
2:15 PM,55.8,38.7,53,30.02,10.0,NW,10.4,-,N/A,,Clear,320,2012-11-19 20:15:00
2:34 PM,55.8,39.2,54,30.03,10.0,NW,9.2,-,N/A,,Clear,310,2012-11-19 20:34:00
2:55 PM,55.2,38.8,54,30.03,10.0,NNW,9.2,-,N/A,,Clear,340,2012-11-19 20:55:00
3:15 PM,54.9,38.8,55,30.03,10.0,NNW,6.9,-,N/A,,Clear,340,2012-11-19 21:15:00
3:35 PM,54.1,38.5,55,30.04,10.0,North,5.8,-,N/A,,Clear,350,2012-11-19 21:35:00
3:54 PM,53.8,38.3,56,30.05,10.0,NNW,10.4,-,N/A,,Clear,340,2012-11-19 21:54:00
4:15 PM,52.9,37.0,55,30.05,10.0,NNW,8.1,-,N/A,,Clear,340,2012-11-19 22:15:00
4:35 PM,51.1,37.2,59,30.06,10.0,NNW,5.8,-,N/A,,Clear,340,2012-11-19 22:35:00
4:55 PM,49.3,37.4,64,30.07,10.0,NNW,6.9,-,N/A,,Clear,340,2012-11-19 22:55:00
5:15 PM,47.8,36.7,65,30.08,10.0,NNW,6.9,-,N/A,,Clear,340,2012-11-19 23:15:00
5:35 PM,46.2,36.5,69,30.08,10.0,NNW,5.8,-,N/A,,Clear,330,2012-11-19 23:35:00
5:55 PM,45.1,36.1,71,30.09,10.0,NNW,6.9,-,N/A,,Clear,330,2012-11-19 23:55:00
6:15 PM,44.8,36.0,71,30.11,10.0,NNW,9.2,-,N/A,,Clear,330,2012-11-20 00:15:00
6:35 PM,45.0,35.8,70,30.11,10.0,NW,4.6,-,N/A,,Clear,320,2012-11-20 00:35:00
6:55 PM,43.0,34.9,73,30.11,10.0,NW,5.8,-,N/A,,Clear,310,2012-11-20 00:55:00
7:15 PM,42.1,34.2,74,30.11,10.0,NW,8.1,-,N/A,,Clear,310,2012-11-20 01:15:00
7:35 PM,41.5,34.2,75,30.11,10.0,WNW,6.9,-,N/A,,Clear,300,2012-11-20 01:35:00
7:55 PM,39.2,33.1,79,30.12,10.0,WNW,6.9,-,N/A,,Clear,290,2012-11-20 01:55:00
8:15 PM,38.1,32.9,81,30.13,10.0,WNW,6.9,-,N/A,,Clear,300,2012-11-20 02:15:00
8:35 PM,37.4,32.5,83,30.13,10.0,WNW,5.8,-,N/A,,Clear,300,2012-11-20 02:35:00
9:15 PM,37.0,32.2,83,30.14,10.0,WNW,8.1,-,N/A,,Clear,300,2012-11-20 03:15:00
9:34 PM,36.3,32.0,84,30.14,10.0,WNW,9.2,-,N/A,,Clear,300,2012-11-20 03:34:00
9:55 PM,36.0,31.8,85,30.15,10.0,WNW,8.1,-,N/A,,Clear,300,2012-11-20 03:55:00
10:15 PM,34.9,31.3,87,30.15,10.0,WNW,8.1,-,N/A,,Clear,300,2012-11-20 04:15:00
10:35 PM,34.9,31.8,89,30.15,10.0,WNW,8.1,-,N/A,,Clear,300,2012-11-20 04:35:00
10:55 PM,35.1,32.0,89,30.15,10.0,WNW,8.1,-,N/A,,Clear,300,2012-11-20 04:55:00
11:14 PM,33.1,30.7,91,30.14,10.0,WNW,6.9,-,N/A,,Clear,290,2012-11-20 05:14:00
11:35 PM,32.4,30.7,94,30.15,10.0,WNW,6.9,-,N/A,,Clear,290,2012-11-20 05:35:00
11:55 PM,32.0,30.2,93,30.15,10.0,WNW,6.9,-,N/A,,Clear,290,2012-11-20 05:55:00